This demonstration page uses our WeatherBlox Daily Observations layout. Learn more.

Left ArrowRight Arrow

38.20091, -84.87328

Hourly Observations for February 22, 2020

Temp ( °F °C ) Dew Point ( °F °C ) Humidity (%) Winds ( mph kmh ) Pressure ( in mb ) Visibility ( mi km ) Precip ( " mm )
12:53 am 00:53 Clear 20 -6.7 12 -11.1 71 71 WSW 5 7 30.49 1032 10 16 0.00 0.00
1:53 am 01:53 Clear 20 -6.7 13 -10.6 74 74 Calm 30.47 1032 10 16 0.00 0.00
2:53 am 02:53 Clear 20 -6.7 11 -11.7 68 68 Calm 30.46 1031 10 16 0.00 0.00
3:53 am 03:53 Clear 21 -6.1 12 -11.1 68 68 SW 5 7 30.45 1031 10 16 0.00 0.00
4:53 am 04:53 Clear 18 -7.8 11 -11.7 74 74 Calm 30.45 1031 10 16 0.00 0.00
5:53 am 05:53 Clear 17 -8.3 10 -12.2 74 74 Calm 30.46 1032 10 16 0.00 0.00
6:53 am 06:53 Clear 18 -7.8 10 -12.2 71 71 Calm 30.49 1032 10 16 0.00 0.00
7:53 am 07:53 Sunny 18 -7.8 11 -11.7 74 74 Calm 30.48 1032 10 16 0.00 0.00
8:53 am 08:53 Sunny 28 -2.2 18 -7.8 66 66 SW 5 7 30.49 1033 10 16 0.00 0.00
9:53 am 09:53 Sunny 35 1.7 18 -7.8 50 50 WSW 7 11 30.50 1033 10 16 0.00 0.00
10:53 am 10:53 Sunny 39 3.9 15 -9.4 38 38 WSW 7 11 30.46 1032 10 16 0.00 0.00
11:53 am 11:53 Sunny 42 5.6 15 -9.4 33 33 VRB 6 9 30.45 1031 10 16 0.00 0.00
12:53 pm 12:53 Sunny 46 7.8 14 -10 27 27 undefined N/A 30.42 1030 10 16 0.00 0.00
1:53 pm 13:53 Sunny 48 8.9 12 -11.1 23 23 SSW 7 11 30.38 1029 10 16 0.00 0.00
2:53 pm 14:53 Sunny 50 10 11 -11.7 21 21 VRB 5 7 30.35 1028 10 16 0.00 0.00
3:53 pm 15:53 Sunny 50 10 11 -11.7 21 21 SSW 9 15 30.33 1027 10 16 0.00 0.00
4:53 pm 16:53 Sunny 50 10 13 -10.6 22 22 SSW 10 17 30.32 1027 10 16 0.00 0.00
5:53 pm 17:53 Sunny 48 8.9 13 -10.6 24 24 S 8 13 30.30 1026 10 16 0.00 0.00
6:53 pm 18:53 Clear 43 6.1 13 -10.6 29 29 S 7 11 30.29 1026 10 16 0.00 0.00
7:53 pm 19:53 Clear 34 1.1 14 -10 44 44 SSW 6 9 30.30 1026 10 16 0.00 0.00
8:53 pm 20:53 Clear 32 0 14 -10 47 47 SW 5 7 30.30 1026 10 16 0.00 0.00
9:53 pm 21:53 Clear 32 0 14 -10 47 47 SW 5 7 30.29 1026 10 16 0.00 0.00
10:53 pm 22:53 Clear 30 -1.1 14 -10 51 51 Calm 30.28 1025 10 16 0.00 0.00
11:53 pm 23:53 Clear 30 -1.1 14 -10 51 51 Calm 30.27 1025 10 16 0.00 0.00

Powered by AerisWeather